AirNav   $300 off a Bose A20 aviation headset
 
 334 users online  

D74 Chorman Airport
Farmington, Delaware, USA

GOING TO FARMINGTON?


FAA INFORMATION EFFECTIVE 28 FEBRUARY 2019

Location

FAA Identifier: D74
Lat/Long: 38-50-58.3000N / 075-36-46.0000W
38-50.971667N / 075-36.766667W
38.8495278 / -75.6127778
(estimated)
Elevation: 66 ft. / 20.1 m (surveyed)
Variation: 11W (1990)
From city: 2 miles SW of FARMINGTON, DE
Time zone: UTC -5 (UTC -4 during Daylight Saving Time)
Zip code: 19950

Airport Operations

Airport use: Open to the public
Activation date: 10/1991
Control tower: no
ARTCC: WASHINGTON CENTER
FSS: MILLVILLE FLIGHT SERVICE STATION
NOTAMs facility: MIV (NOTAM-D service available)
Attendance: MON-FRI 0830-DUSK
Wind indicator: yes
Segmented circle: no
Lights: FOR LIRL RY 16/34 AND REIL RYS 16 & 34 CALL 302-349-5055 OR 645-9225.
Beacon: white-green (lighted land airport)
FOR ROTG BCN CALL 302-349-5055 OR 645-9225.

Airport Communications

CTAF: 122.9
WX ASOS at GED (15 nm SE): 118.375 (302-856-2927)

Nearby radio navigation aids

VOR radial/distance  VOR name  Freq  Var
ATRr286/18.9WATERLOO VOR/DME112.6009W
ENOr200/23.4SMYRNA VORTAC111.4009W
SBYr003/30.6SALISBURY VORTAC111.2012W

Airport Services

Airframe service: MAJOR
Powerplant service: MAJOR

Runway Information

Runway 16/34

Dimensions: 3588 x 37 ft. / 1094 x 11 m
Surface: asphalt, in excellent condition
LARGE UNSEALED SURFACE CRACKS; ALLIGATOR PATCHES.
Runway edge lights: low intensity
RUNWAY 16  RUNWAY 34
Latitude: 38-51.242333N38-50.702500N
Longitude: 075-36.921500W075-36.613167W
Traffic pattern: leftleft
Markings: basic, in good conditionbasic, in good condition
Runway end identifier lights: yesyes
Obstructions: none24 ft. pole, 250 ft. from runway, 80 ft. right of centerline, 2:1 slope to clear

Airport Ownership and Management from official FAA records

Ownership: Privately-owned
Owner: ALLEN CHORMAN
30475 EAST MILL RUN
MILTON, DE 19968
Phone 302-645-9225
Manager: ALLEN CHORMAN
2057 NINE FT RD
GREENWOOD, DE 11952
Phone 302-349-5055

Airport Operational Statistics

Aircraft based on the field: 19
Single engine airplanes: 17
Multi engine airplanes: 2
    
Aircraft operations: avg 40/day *
90% transient general aviation
10% local general aviation
* for 12-month period ending 17 April 2018

Additional Remarks

AGRICULTURE SPRAYING ACTIVITY ON & INVOF ARPT.
LOADING PAD ADJACENT TO EAST SIDE RY 34.

Instrument Procedures

There are no published instrument procedures at D74.

Some nearby airports with instrument procedures:

KRJD - Ridgely Airpark (14 nm NW)
KGED - Delaware Coastal Airport (15 nm SE)
KDOV - Dover Air Force Base (18 nm N)
N06 - Laurel Airport (18 nm S)
KESN - Easton/Newnam Field Airport (21 nm W)
 
Loc | Ops | Rwys | IFR | FBO | Links
Com | Nav | Svcs | Stats | Notes
Area around D74 (Chorman Airport)
 
Road maps at: MapQuest Bing Google
 
Aerial photo
WARNING: Photo may not be current or correct
Aerial photo of D74 (Chorman Airport)
Photo by Chris Connor
Photo taken 09-Jun-2012
looking west.

Do you have a better or more recent aerial photo of Chorman Airport that you would like to share? If so, please send us your photo.

 
Sectional chart

 
Airport distance calculator
Flying to Chorman Airport? Find the distance to fly.

From to D74

Sunrise and sunset
Times for 24-Mar-2019
 Local
(UTC-4)
 Zulu
(UTC)
Morning civil twilight06:3410:34
Sunrise07:0111:01
Sunset19:1723:17
Evening civil twilight19:4423:44

Current date and time
Zulu (UTC)  24-Mar-2019 10:21:07
Local (UTC-4)  24-Mar-2019 06:21:07
 
METAR
KGED 
15nm SE 
240954Z AUTO 25003KT 10SM CLR 02/M06 A3028 RMK AO2 SLP254 T00221056
KDOV 
17nm NE 
240756Z AUTO 25003KT 10SM CLR 03/M06 A3023 RMK AO2 SLP240 T00291065 $
KESN 
21nm W 
240958Z 00000KT 10SM SKC 02/M03 A3031
KCGE 
27nm SW 
240940Z AUTO 00000KT 10SM CLR M00/M03 A3028 RMK A01
TAF
KDOV 
17nm NE 
232240Z 2322/2422 28015G25KT 9999 SKC QNH3009INS BECMG 2400/2401 28012KT 9999 SKC QNH3010INS BECMG 2416/2417 26012KT 9999 SCT150 QNH3007INS TX11/2416Z TN01/2407Z
NOTAMs
Click for the latest NOTAMs
NOTAMs are issued by the DoD/FAA and will open in a separate window not controlled by AirNav.

 

 
 

Would you like to see your business listed on this page?

 If your business provides an interesting product or service to pilots, flight crews, aircraft, or users of the Chorman Airport, you should consider listing it here.  To start the listing process, click on the button below
 
Add a business
 

Other Pages about Chorman Airport

Update a link
 
Copyright © AirNav, LLC. All rights reserved. Privacy Policy  Contact